Time,TemperatureF,DewpointF,PressureIn,WindDirection,WindDirectionDegrees,WindSpeedMPH,WindSpeedGustMPH,Humidity,HourlyPrecipIn,Conditions,Clouds,dailyrainin,SoftwareType,DateUTC
2013-02-17 00:00:00,15.7,13.8,30.00,SW,232,1.0,11.0,92,0.00,,---,0.00,VWS V14.01,2013-02-17 05:00:00,
2013-02-17 00:05:00,15.7,13.8,30.00,WSW,255,6.0,11.0,92,0.00,,---,0.00,VWS V14.01,2013-02-17 05:05:00,
2013-02-17 00:10:00,15.5,13.6,30.00,SW,231,2.0,13.0,92,0.00,,---,0.00,VWS V14.01,2013-02-17 05:10:00,
2013-02-17 00:15:00,15.4,13.2,30.00,ESE,102,0.0,16.0,91,0.00,,---,0.00,VWS V14.01,2013-02-17 05:15:00,
2013-02-17 00:21:00,15.1,12.9,30.00,SW,226,7.0,16.0,91,0.00,,---,0.00,VWS V14.01,2013-02-17 05:21:00,
2013-02-17 00:26:00,14.8,12.6,30.00,West,266,5.0,16.0,91,0.00,,---,0.00,VWS V14.01,2013-02-17 05:26:00,
2013-02-17 00:31:00,14.7,12.6,30.01,ENE,78,1.0,5.0,91,0.00,,---,0.00,VWS V14.01,2013-02-17 05:31:00,
2013-02-17 00:36:00,14.7,12.6,30.01,South,188,1.0,7.0,91,0.00,,---,0.00,VWS V14.01,2013-02-17 05:36:00,
2013-02-17 00:41:00,14.6,12.5,30.01,NW,325,1.0,12.0,91,0.00,,---,0.00,VWS V14.01,2013-02-17 05:41:00,
2013-02-17 00:46:00,14.5,12.4,30.01,WNW,295,1.0,12.0,91,0.00,,---,0.00,VWS V14.01,2013-02-17 05:46:00,
2013-02-17 00:51:00,14.5,12.6,30.01,WNW,291,9.0,12.0,92,0.00,,---,0.00,VWS V14.01,2013-02-17 05:51:00,
2013-02-17 00:56:00,14.5,12.6,30.01,SW,232,1.0,12.0,92,0.00,,---,0.00,VWS V14.01,2013-02-17 05:56:00,
2013-02-17 01:01:00,14.4,12.5,30.01,WSW,242,7.0,12.0,92,0.00,,---,0.00,VWS V14.01,2013-02-17 06:01:00,
2013-02-17 01:06:00,14.3,12.2,30.02,NNW,335,0.0,12.0,91,0.00,,---,0.00,VWS V14.01,2013-02-17 06:06:00,
2013-02-17 01:11:00,14.1,12.0,30.02,NW,311,3.0,12.0,91,0.00,,---,0.00,VWS V14.01,2013-02-17 06:11:00,
2013-02-17 01:16:00,13.9,11.8,30.01,NW,323,2.0,12.0,91,0.00,,---,0.00,VWS V14.01,2013-02-17 06:16:00,
2013-02-17 01:21:00,13.8,11.9,30.02,WNW,283,4.0,12.0,92,0.00,,---,0.00,VWS V14.01,2013-02-17 06:21:00,
2013-02-17 01:26:00,13.7,11.8,30.02,WNW,285,4.0,12.0,92,0.00,,---,0.00,VWS V14.01,2013-02-17 06:26:00,
2013-02-17 01:31:00,13.8,11.9,30.01,SSE,148,0.0,2.0,92,0.00,,---,0.00,VWS V14.01,2013-02-17 06:31:00,
2013-02-17 01:36:00,13.8,11.9,30.01,WSW,238,6.0,9.0,92,0.00,,---,0.00,VWS V14.01,2013-02-17 06:36:00,
2013-02-17 01:41:00,13.8,11.9,30.02,SW,235,5.0,11.0,92,0.00,,---,0.00,VWS V14.01,2013-02-17 06:41:00,
2013-02-17 01:46:00,13.7,11.8,30.02,West,277,1.0,11.0,92,0.00,,---,0.00,VWS V14.01,2013-02-17 06:46:00,
2013-02-17 01:51:00,13.6,11.7,30.02,WNW,288,3.0,11.0,92,0.00,,---,0.00,VWS V14.01,2013-02-17 06:51:00,
2013-02-17 01:56:00,13.6,11.7,30.02,West,280,0.0,11.0,92,0.00,,---,0.00,VWS V14.01,2013-02-17 06:56:00,
2013-02-17 02:01:00,13.5,11.6,30.02,West,278,5.0,14.0,92,0.00,,---,0.00,VWS V14.01,2013-02-17 07:01:00,
2013-02-17 02:06:00,13.3,11.2,30.02,WNW,298,4.0,14.0,91,0.00,,---,0.00,VWS V14.01,2013-02-17 07:06:00,
2013-02-17 02:11:00,13.1,11.0,30.02,WNW,289,3.0,14.0,91,0.00,,---,0.00,VWS V14.01,2013-02-17 07:11:00,
2013-02-17 02:16:00,12.8,10.7,30.02,NW,322,2.0,14.0,91,0.00,,---,0.00,VWS V14.01,2013-02-17 07:16:00,
2013-02-17 02:21:00,12.7,10.6,30.02,NW,316,2.0,14.0,91,0.00,,---,0.00,VWS V14.01,2013-02-17 07:21:00,
2013-02-17 02:26:00,12.5,10.4,30.02,WNW,287,4.0,14.0,91,0.00,,---,0.00,VWS V14.01,2013-02-17 07:26:00,
2013-02-17 02:31:00,12.4,10.3,30.02,WNW,291,3.0,9.0,91,0.00,,---,0.00,VWS V14.01,2013-02-17 07:31:00,
2013-02-17 02:36:00,12.2,10.1,30.02,NW,314,5.0,11.0,91,0.00,,---,0.00,VWS V14.01,2013-02-17 07:36:00,
2013-02-17 02:41:00,12.1,10.0,30.02,SW,235,1.0,11.0,91,0.00,,---,0.00,VWS V14.01,2013-02-17 07:41:00,
2013-02-17 02:46:00,12.1,10.0,30.02,NNW,342,3.0,11.0,91,0.00,,---,0.00,VWS V14.01,2013-02-17 07:46:00,
2013-02-17 02:51:00,11.9,9.8,30.02,NNW,340,2.0,11.0,91,0.00,,---,0.00,VWS V14.01,2013-02-17 07:51:00,
2013-02-17 02:56:00,11.8,9.7,30.02,WNW,300,3.0,11.0,91,0.00,,---,0.00,VWS V14.01,2013-02-17 07:56:00,
2013-02-17 03:01:00,11.7,9.6,30.02,WNW,285,5.0,12.0,91,0.00,,---,0.00,VWS V14.01,2013-02-17 08:01:00,
2013-02-17 03:06:00,11.6,9.2,30.03,West,259,6.0,15.0,90,0.00,,---,0.00,VWS V14.01,2013-02-17 08:06:00,
2013-02-17 03:11:00,11.5,9.1,30.03,West,264,2.0,15.0,90,0.00,,---,0.00,VWS V14.01,2013-02-17 08:11:00,
2013-02-17 03:16:00,11.4,9.0,30.03,West,274,6.0,15.0,90,0.00,,---,0.00,VWS V14.01,2013-02-17 08:16:00,
2013-02-17 03:21:00,11.3,8.9,30.03,NW,323,7.0,16.0,90,0.00,,---,0.00,VWS V14.01,2013-02-17 08:21:00,
2013-02-17 03:26:00,11.2,8.4,30.03,SW,224,6.0,16.0,88,0.00,,---,0.00,VWS V14.01,2013-02-17 08:26:00,
2013-02-17 03:31:00,11.1,8.5,30.02,WSW,252,2.0,8.0,89,0.00,,---,0.00,VWS V14.01,2013-02-17 08:31:00,
2013-02-17 03:36:00,11.1,8.5,30.03,WNW,283,7.0,13.0,89,0.00,,---,0.00,VWS V14.01,2013-02-17 08:36:00,
2013-02-17 03:41:00,11.1,8.8,30.03,SW,235,1.0,13.0,90,0.00,,---,0.00,VWS V14.01,2013-02-17 08:41:00,
2013-02-17 03:46:00,11.1,8.8,30.03,WNW,283,6.0,13.0,90,0.00,,---,0.00,VWS V14.01,2013-02-17 08:46:00,
2013-02-17 03:51:00,11.0,8.6,30.03,West,281,4.0,13.0,90,0.00,,---,0.00,VWS V14.01,2013-02-17 08:51:00,
2013-02-17 03:56:00,10.9,8.3,30.03,West,273,3.0,13.0,89,0.00,,---,0.00,VWS V14.01,2013-02-17 08:56:00,
2013-02-17 04:01:00,10.9,8.6,30.03,WNW,300,2.0,8.0,90,0.00,,---,0.00,VWS V14.01,2013-02-17 09:01:00,
2013-02-17 04:06:00,10.9,8.6,30.03,NW,318,7.0,14.0,90,0.00,,---,0.00,VWS V14.01,2013-02-17 09:06:00,
2013-02-17 04:11:00,10.5,7.7,30.03,NW,308,5.0,14.0,88,0.00,,---,0.00,VWS V14.01,2013-02-17 09:11:00,
2013-02-17 04:16:00,10.3,7.5,30.03,WNW,291,6.0,14.0,88,0.00,,---,0.00,VWS V14.01,2013-02-17 09:16:00,
2013-02-17 04:21:00,10.0,7.2,30.04,SSW,198,7.0,15.0,88,0.00,,---,0.00,VWS V14.01,2013-02-17 09:21:00,
2013-02-17 05:30:00,9.0,5.4,30.06,WNW,292,5.0,20.0,85,0.00,,---,0.00,VWS V14.01,2013-02-17 10:30:00,
2013-02-17 06:18:00,8.9,5.1,30.08,WNW,297,2.0,5.0,84,0.00,,---,0.00,VWS V14.01,2013-02-17 11:18:00,
2013-02-17 06:23:00,9.0,5.2,30.08,NW,321,5.0,12.0,84,0.00,,---,0.00,VWS V14.01,2013-02-17 11:23:00,
2013-02-17 06:28:00,9.1,5.3,30.09,SW,215,8.0,12.0,84,0.00,,---,0.00,VWS V14.01,2013-02-17 11:28:00,
2013-02-17 06:33:00,9.0,5.2,30.09,SW,228,5.0,13.0,84,0.00,,---,0.00,VWS V14.01,2013-02-17 11:33:00,
2013-02-17 06:38:00,8.9,4.8,30.09,ESE,109,1.0,13.0,83,0.00,,---,0.00,VWS V14.01,2013-02-17 11:38:00,
2013-02-17 06:43:00,8.9,4.5,30.09,WSW,249,3.0,15.0,82,0.00,,---,0.00,VWS V14.01,2013-02-17 11:43:00,
2013-02-17 06:48:00,8.9,4.3,30.09,WNW,293,7.0,17.0,81,0.00,,---,0.00,VWS V14.01,2013-02-17 11:48:00,
2013-02-17 06:53:00,8.8,4.2,30.09,WNW,293,2.0,17.0,81,0.00,,---,0.00,VWS V14.01,2013-02-17 11:53:00,
2013-02-17 06:58:00,8.7,3.8,30.09,North,1,1.0,17.0,80,0.00,,---,0.00,VWS V14.01,2013-02-17 11:58:00,
2013-02-17 07:03:00,8.7,3.8,30.09,West,281,1.0,8.0,80,0.00,,---,0.00,VWS V14.01,2013-02-17 12:03:00,
2013-02-17 07:08:00,8.7,3.8,30.10,WNW,289,2.0,12.0,80,0.00,,---,0.00,VWS V14.01,2013-02-17 12:08:00,
2013-02-17 07:13:00,8.7,3.8,30.10,WNW,289,3.0,12.0,80,0.00,,---,0.00,VWS V14.01,2013-02-17 12:13:00,
2013-02-17 07:18:00,8.6,3.7,30.10,West,266,4.0,16.0,80,0.00,,---,0.00,VWS V14.01,2013-02-17 12:18:00,
2013-02-17 07:23:00,8.6,3.7,30.10,WNW,297,1.0,16.0,80,0.00,,---,0.00,VWS V14.01,2013-02-17 12:23:00,
2013-02-17 07:29:00,8.6,4.0,30.11,NNW,342,3.0,16.0,81,0.00,,---,0.00,VWS V14.01,2013-02-17 12:29:00,
2013-02-17 07:34:00,8.5,4.2,30.10,WSW,244,4.0,12.0,82,0.00,,---,0.00,VWS V14.01,2013-02-17 12:34:00,
2013-02-17 07:39:00,8.4,4.1,30.11,WSW,248,2.0,12.0,82,0.00,,---,0.00,VWS V14.01,2013-02-17 12:39:00,
2013-02-17 07:44:00,8.3,4.0,30.11,WNW,287,1.0,12.0,82,0.00,,---,0.00,VWS V14.01,2013-02-17 12:44:00,
2013-02-17 07:49:00,8.3,4.0,30.12,WNW,287,3.0,12.0,82,0.00,,---,0.00,VWS V14.01,2013-02-17 12:49:00,
2013-02-17 07:54:00,8.5,4.2,30.12,SSW,203,2.0,12.0,82,0.00,,---,0.00,VWS V14.01,2013-02-17 12:54:00,
2013-02-17 07:59:00,8.7,4.3,30.12,West,280,2.0,12.0,82,0.00,,---,0.00,VWS V14.01,2013-02-17 12:59:00,
2013-02-17 08:04:00,8.9,4.5,30.12,WNW,298,4.0,15.0,82,0.00,,---,0.00,VWS V14.01,2013-02-17 13:04:00,
2013-02-17 08:09:00,8.9,4.5,30.12,SSW,210,2.0,15.0,82,0.00,,---,0.00,VWS V14.01,2013-02-17 13:09:00,
2013-02-17 08:14:00,9.1,5.0,30.13,WNW,295,3.0,15.0,83,0.00,,---,0.00,VWS V14.01,2013-02-17 13:14:00,
2013-02-17 08:19:00,9.0,4.9,30.13,WNW,298,2.0,15.0,83,0.00,,---,0.00,VWS V14.01,2013-02-17 13:19:00,
2013-02-17 08:24:00,9.1,4.7,30.13,WNW,302,5.0,15.0,82,0.00,,---,0.00,VWS V14.01,2013-02-17 13:24:00,
2013-02-17 08:29:00,9.2,5.1,30.14,WNW,300,4.0,15.0,83,0.00,,---,0.00,VWS V14.01,2013-02-17 13:29:00,
2013-02-17 08:34:00,9.3,5.2,30.14,WNW,289,9.0,11.0,83,0.00,,---,0.00,VWS V14.01,2013-02-17 13:34:00,
2013-02-17 08:39:00,9.3,4.9,30.14,NNW,336,2.0,15.0,82,0.00,,---,0.00,VWS V14.01,2013-02-17 13:39:00,
2013-02-17 08:44:00,9.4,5.3,30.14,SSW,211,3.0,15.0,83,0.00,,---,0.00,VWS V14.01,2013-02-17 13:44:00,
2013-02-17 08:49:00,9.6,5.5,30.15,WSW,240,7.0,15.0,83,0.00,,---,0.00,VWS V14.01,2013-02-17 13:49:00,
2013-02-17 08:54:00,9.9,5.5,30.15,West,259,1.0,16.0,82,0.00,,---,0.00,VWS V14.01,2013-02-17 13:54:00,
2013-02-17 08:59:00,10.0,5.9,30.15,NNE,32,3.0,16.0,83,0.00,,---,0.00,VWS V14.01,2013-02-17 13:59:00,
2013-02-17 09:04:00,10.0,6.1,30.16,West,273,4.0,13.0,84,0.00,,---,0.00,VWS V14.01,2013-02-17 14:04:00,
2013-02-17 09:09:00,10.1,6.0,30.15,WNW,301,5.0,13.0,83,0.00,,---,0.00,VWS V14.01,2013-02-17 14:09:00,
2013-02-17 09:14:00,10.4,6.5,30.16,NNW,343,1.0,13.0,84,0.00,,---,0.00,VWS V14.01,2013-02-17 14:14:00,
2013-02-17 09:19:00,10.5,6.4,30.16,West,273,2.0,13.0,83,0.00,,---,0.00,VWS V14.01,2013-02-17 14:19:00,
2013-02-17 09:24:00,10.7,6.3,30.16,South,174,8.0,13.0,82,0.00,,---,0.00,VWS V14.01,2013-02-17 14:24:00,
2013-02-17 09:29:00,10.7,6.0,30.16,SW,221,6.0,20.0,81,0.00,,---,0.00,VWS V14.01,2013-02-17 14:29:00,
2013-02-17 09:34:00,10.8,6.1,30.16,North,1,2.0,12.0,81,0.00,,---,0.00,VWS V14.01,2013-02-17 14:34:00,
2013-02-17 09:39:00,11.4,6.4,30.16,SSW,210,5.0,12.0,80,0.00,,---,0.00,VWS V14.01,2013-02-17 14:39:00,
2013-02-17 09:44:00,11.5,6.0,30.16,NE,45,4.0,15.0,78,0.00,,---,0.00,VWS V14.01,2013-02-17 14:44:00,
2013-02-17 09:49:00,11.4,5.9,30.16,SW,229,8.0,15.0,78,0.00,,---,0.00,VWS V14.01,2013-02-17 14:49:00,
2013-02-17 09:54:00,11.6,5.8,30.17,NW,306,6.0,15.0,77,0.00,,---,0.00,VWS V14.01,2013-02-17 14:54:00,
2013-02-17 09:59:00,11.2,5.1,30.17,WSW,248,0.0,15.0,76,0.00,,---,0.00,VWS V14.01,2013-02-17 14:59:00,
2013-02-17 10:04:00,11.9,6.1,30.17,NNW,337,3.0,14.0,77,0.00,,---,0.00,VWS V14.01,2013-02-17 15:04:00,
2013-02-17 10:09:00,12.5,6.4,30.17,NW,314,10.0,14.0,76,0.00,,---,0.00,VWS V14.01,2013-02-17 15:09:00,
2013-02-17 10:14:00,13.1,7.0,30.17,WNW,293,8.0,14.0,76,0.00,,---,0.00,VWS V14.01,2013-02-17 15:14:00,
2013-02-17 10:19:00,12.6,6.2,30.18,WSW,238,7.0,14.0,75,0.00,,---,0.00,VWS V14.01,2013-02-17 15:19:00,
2013-02-17 10:24:00,12.4,6.3,30.18,WNW,294,7.0,14.0,76,0.00,,---,0.00,VWS V14.01,2013-02-17 15:24:00,
2013-02-17 10:29:00,12.5,5.8,30.18,SW,225,0.0,14.0,74,0.00,,---,0.00,VWS V14.01,2013-02-17 15:29:00,
2013-02-17 10:34:00,12.9,5.9,30.18,WNW,293,10.0,12.0,73,0.00,,---,0.00,VWS V14.01,2013-02-17 15:34:00,
2013-02-17 10:39:00,12.6,6.2,30.18,WNW,285,2.0,16.0,75,0.00,,---,0.00,VWS V14.01,2013-02-17 15:39:00,
2013-02-17 10:44:00,12.6,6.5,30.18,WNW,293,6.0,16.0,76,0.00,,---,0.00,VWS V14.01,2013-02-17 15:44:00,
2013-02-17 10:49:00,12.5,7.2,30.18,WNW,293,4.0,16.0,79,0.00,,---,0.00,VWS V14.01,2013-02-17 15:49:00,
2013-02-17 10:54:00,12.0,7.3,30.19,West,276,5.0,16.0,81,0.00,,---,0.00,VWS V14.01,2013-02-17 15:54:00,
2013-02-17 10:59:00,12.9,7.3,30.19,South,184,4.0,16.0,78,0.00,,---,0.00,VWS V14.01,2013-02-17 15:59:00,
2013-02-17 11:04:00,13.9,6.9,30.19,WSW,243,5.0,13.0,73,0.00,,---,0.00,VWS V14.01,2013-02-17 16:04:00,
2013-02-17 11:09:00,13.8,5.8,30.19,WNW,298,1.0,15.0,70,0.00,,---,0.00,VWS V14.01,2013-02-17 16:09:00,
2013-02-17 11:14:00,14.1,5.8,30.19,WSW,245,6.0,15.0,69,0.00,,---,0.00,VWS V14.01,2013-02-17 16:14:00,
2013-02-17 11:19:00,13.7,5.4,30.20,West,277,4.0,16.0,69,0.00,,---,0.00,VWS V14.01,2013-02-17 16:19:00,
2013-02-17 11:24:00,13.7,5.1,30.20,SSW,210,4.0,16.0,68,0.00,,---,0.00,VWS V14.01,2013-02-17 16:24:00,
2013-02-17 11:29:00,13.7,5.1,30.20,SW,214,5.0,16.0,68,0.00,,---,0.00,VWS V14.01,2013-02-17 16:29:00,
2013-02-17 11:34:00,14.3,5.7,30.20,WSW,248,7.0,14.0,68,0.00,,---,0.00,VWS V14.01,2013-02-17 16:34:00,
2013-02-17 11:39:00,14.5,5.6,30.20,West,279,4.0,14.0,67,0.00,,---,0.00,VWS V14.01,2013-02-17 16:39:00,
2013-02-17 11:44:00,14.9,6.3,30.20,WNW,289,13.0,16.0,68,0.00,,---,0.00,VWS V14.01,2013-02-17 16:44:00,
2013-02-17 11:49:00,15.2,6.9,30.20,WNW,289,5.0,16.0,69,0.00,,---,0.00,VWS V14.01,2013-02-17 16:49:00,
2013-02-17 11:54:00,15.6,6.9,30.20,WNW,295,6.0,17.0,68,0.00,,---,0.00,VWS V14.01,2013-02-17 16:54:00,
2013-02-17 12:00:00,16.2,7.8,30.20,SW,217,8.0,17.0,69,0.00,,---,0.00,VWS V14.01,2013-02-17 17:00:00,
2013-02-17 12:05:00,16.7,7.7,30.21,SSW,194,5.0,13.0,67,0.00,,---,0.00,VWS V14.01,2013-02-17 17:05:00,
2013-02-17 12:10:00,16.8,7.4,30.20,WNW,295,7.0,16.0,66,0.00,,---,0.00,VWS V14.01,2013-02-17 17:10:00,
2013-02-17 12:15:00,16.2,6.8,30.20,West,264,7.0,16.0,66,0.00,,---,0.00,VWS V14.01,2013-02-17 17:15:00,
2013-02-17 12:20:00,16.5,7.5,30.20,WSW,248,2.0,16.0,67,0.00,,---,0.00,VWS V14.01,2013-02-17 17:20:00,
2013-02-17 12:25:00,16.8,7.4,30.20,NE,56,2.0,16.0,66,0.00,,---,0.00,VWS V14.01,2013-02-17 17:25:00,
2013-02-17 12:30:00,16.3,5.2,30.20,WNW,290,2.0,16.0,61,0.00,,---,0.00,VWS V14.01,2013-02-17 17:30:00,
2013-02-17 12:35:00,16.0,5.6,30.19,SW,231,16.0,17.0,63,0.00,,---,0.00,VWS V14.01,2013-02-17 17:35:00,
2013-02-17 12:40:00,16.3,7.3,30.19,WNW,290,3.0,17.0,67,0.00,,---,0.00,VWS V14.01,2013-02-17 17:40:00,
2013-02-17 12:45:00,16.6,7.2,30.19,WSW,238,20.0,20.0,66,0.00,,---,0.00,VWS V14.01,2013-02-17 17:45:00,
2013-02-17 12:50:00,16.8,7.4,30.20,NW,319,3.0,20.0,66,0.00,,---,0.00,VWS V14.01,2013-02-17 17:50:00,
2013-02-17 12:55:00,16.3,7.6,30.19,WSW,241,2.0,20.0,68,0.00,,---,0.00,VWS V14.01,2013-02-17 17:55:00,
2013-02-17 13:00:00,15.8,7.8,30.20,WNW,284,8.0,8.0,70,0.00,,---,0.00,VWS V14.01,2013-02-17 18:00:00,
2013-02-17 13:05:00,15.5,7.5,30.20,West,280,6.0,14.0,70,0.00,,---,0.00,VWS V14.01,2013-02-17 18:05:00,
2013-02-17 13:10:00,15.2,7.8,30.19,WNW,298,6.0,14.0,72,0.00,,---,0.00,VWS V14.01,2013-02-17 18:10:00,
2013-02-17 13:15:00,15.5,8.1,30.19,NW,323,1.0,14.0,72,0.00,,---,0.00,VWS V14.01,2013-02-17 18:15:00,
2013-02-17 13:20:00,16.3,7.9,30.19,North,1,2.0,14.0,69,0.00,,---,0.00,VWS V14.01,2013-02-17 18:20:00,
2013-02-17 13:25:00,16.1,6.8,30.19,West,263,4.0,16.0,66,0.00,,---,0.00,VWS V14.01,2013-02-17 18:25:00,
2013-02-17 13:30:00,16.3,7.3,30.19,WSW,252,10.0,10.0,67,0.00,,---,0.00,VWS V14.01,2013-02-17 18:30:00,
2013-02-17 13:35:00,16.8,7.4,30.19,WNW,287,7.0,20.0,66,0.00,,---,0.00,VWS V14.01,2013-02-17 18:35:00,
2013-02-17 13:40:00,17.1,7.4,30.19,NNW,328,3.0,20.0,65,0.00,,---,0.00,VWS V14.01,2013-02-17 18:40:00,
2013-02-17 13:45:00,17.5,7.8,30.20,East,82,1.0,20.0,65,0.00,,---,0.00,VWS V14.01,2013-02-17 18:45:00,
2013-02-17 13:50:00,17.8,7.7,30.19,West,262,2.0,20.0,64,0.00,,---,0.00,VWS V14.01,2013-02-17 18:50:00,
2013-02-17 13:55:00,18.0,7.5,30.19,West,281,6.0,20.0,63,0.00,,---,0.00,VWS V14.01,2013-02-17 18:55:00,
2013-02-17 14:00:00,17.8,7.7,30.20,SSW,201,7.0,7.0,64,0.00,,---,0.00,VWS V14.01,2013-02-17 19:00:00,
2013-02-17 14:05:00,18.0,7.9,30.20,WSW,257,13.0,15.0,64,0.00,,---,0.00,VWS V14.01,2013-02-17 19:05:00,
2013-02-17 14:10:00,18.5,7.7,30.20,West,271,9.0,17.0,62,0.00,,---,0.00,VWS V14.01,2013-02-17 19:10:00,
2013-02-17 14:15:00,18.7,7.5,30.20,SSW,198,11.0,17.0,61,0.00,,---,0.00,VWS V14.01,2013-02-17 19:15:00,
2013-02-17 14:20:00,19.1,7.5,30.20,SW,236,10.0,17.0,60,0.00,,---,0.00,VWS V14.01,2013-02-17 19:20:00,
2013-02-17 14:25:00,19.2,7.6,30.20,West,260,6.0,17.0,60,0.00,,---,0.00,VWS V14.01,2013-02-17 19:25:00,
2013-02-17 14:30:00,18.7,7.1,30.20,WNW,302,8.0,8.0,60,0.00,,---,0.00,VWS V14.01,2013-02-17 19:30:00,
2013-02-17 14:35:00,17.8,7.0,30.20,SSW,201,9.0,15.0,62,0.00,,---,0.00,VWS V14.01,2013-02-17 19:35:00,
2013-02-17 14:40:00,17.8,7.0,30.20,WSW,245,7.0,16.0,62,0.00,,---,0.00,VWS V14.01,2013-02-17 19:40:00,
2013-02-17 14:45:00,18.3,7.8,30.20,SSW,201,8.0,16.0,63,0.00,,---,0.00,VWS V14.01,2013-02-17 19:45:00,
2013-02-17 14:50:00,17.5,7.1,30.21,West,259,11.0,16.0,63,0.00,,---,0.00,VWS V14.01,2013-02-17 19:50:00,
2013-02-17 14:55:00,17.3,7.6,30.20,WNW,297,2.0,16.0,65,0.00,,---,0.00,VWS V14.01,2013-02-17 19:55:00,
2013-02-17 15:00:00,17.8,8.4,30.20,SSE,163,2.0,11.0,66,0.00,,---,0.00,VWS V14.01,2013-02-17 20:00:00,
2013-02-17 15:05:00,17.9,8.5,30.20,WNW,283,2.0,15.0,66,0.00,,---,0.00,VWS V14.01,2013-02-17 20:05:00,
2013-02-17 15:10:00,18.1,8.7,30.20,NW,314,11.0,17.0,66,0.00,,---,0.00,VWS V14.01,2013-02-17 20:10:00,
2013-02-17 15:15:00,18.4,7.9,30.21,SW,214,4.0,20.0,63,0.00,,---,0.00,VWS V14.01,2013-02-17 20:15:00,
2013-02-17 15:20:00,18.6,7.4,30.21,West,277,6.0,20.0,61,0.00,,---,0.00,VWS V14.01,2013-02-17 20:20:00,
2013-02-17 15:25:00,18.9,8.1,30.21,WNW,297,3.0,20.0,62,0.00,,---,0.00,VWS V14.01,2013-02-17 20:25:00,
2013-02-17 15:30:00,18.8,7.2,30.21,West,266,7.0,13.0,60,0.00,,---,0.00,VWS V14.01,2013-02-17 20:30:00,
2013-02-17 15:35:00,18.8,7.6,30.22,NW,314,9.0,17.0,61,0.00,,---,0.00,VWS V14.01,2013-02-17 20:35:00,
2013-02-17 15:40:00,18.6,6.7,30.22,WNW,292,8.0,18.0,59,0.00,,---,0.00,VWS V14.01,2013-02-17 20:40:00,
2013-02-17 15:45:00,18.5,6.9,30.22,SSE,153,3.0,18.0,60,0.00,,---,0.00,VWS V14.01,2013-02-17 20:45:00,
2013-02-17 15:50:00,18.8,7.6,30.22,SW,228,6.0,18.0,61,0.00,,---,0.00,VWS V14.01,2013-02-17 20:50:00,
2013-02-17 15:55:00,19.2,8.3,30.22,ENE,70,2.0,18.0,62,0.00,,---,0.00,VWS V14.01,2013-02-17 20:55:00,
2013-02-17 16:00:00,19.0,7.4,30.22,NW,318,7.0,15.0,60,0.00,,---,0.00,VWS V14.01,2013-02-17 21:00:00,
2013-02-17 16:05:00,18.6,7.4,30.22,NW,304,7.0,15.0,61,0.00,,---,0.00,VWS V14.01,2013-02-17 21:05:00,
2013-02-17 16:10:00,18.4,7.2,30.22,NNW,343,10.0,15.0,61,0.00,,---,0.00,VWS V14.01,2013-02-17 21:10:00,
2013-02-17 16:15:00,18.3,7.1,30.22,WSW,245,13.0,16.0,61,0.00,,---,0.00,VWS V14.01,2013-02-17 21:15:00,
2013-02-17 16:20:00,18.6,7.4,30.22,NNW,344,4.0,16.0,61,0.00,,---,0.00,VWS V14.01,2013-02-17 21:20:00,
2013-02-17 16:25:00,18.6,7.4,30.22,WSW,250,5.0,16.0,61,0.00,,---,0.00,VWS V14.01,2013-02-17 21:25:00,
2013-02-17 16:30:00,18.6,7.4,30.23,WSW,252,5.0,9.0,61,0.00,,---,0.00,VWS V14.01,2013-02-17 21:30:00,
2013-02-17 16:36:00,18.1,6.9,30.23,South,176,4.0,12.0,61,0.00,,---,0.00,VWS V14.01,2013-02-17 21:36:00,
2013-02-17 16:40:00,17.8,7.3,30.23,WSW,253,6.0,13.0,63,0.00,,---,0.00,VWS V14.01,2013-02-17 21:40:00,
2013-02-17 16:46:00,18.1,7.6,30.23,West,262,4.0,13.0,63,0.00,,---,0.00,VWS V14.01,2013-02-17 21:46:00,
2013-02-17 16:51:00,18.1,7.6,30.23,SW,226,5.0,15.0,63,0.00,,---,0.00,VWS V14.01,2013-02-17 21:51:00,
2013-02-17 16:56:00,18.5,7.7,30.23,WNW,285,5.0,15.0,62,0.00,,---,0.00,VWS V14.01,2013-02-17 21:56:00,
2013-02-17 17:01:00,18.5,7.3,30.23,WSW,245,3.0,7.0,61,0.00,,---,0.00,VWS V14.01,2013-02-17 22:01:00,
2013-02-17 17:06:00,18.5,7.3,30.24,WNW,300,4.0,13.0,61,0.00,,---,0.00,VWS V14.01,2013-02-17 22:06:00,
2013-02-17 17:11:00,18.6,7.4,30.24,West,271,0.0,13.0,61,0.00,,---,0.00,VWS V14.01,2013-02-17 22:11:00,
2013-02-17 17:16:00,18.5,7.7,30.24,WNW,290,3.0,13.0,62,0.00,,---,0.00,VWS V14.01,2013-02-17 22:16:00,
2013-02-17 17:21:00,18.5,7.7,30.24,WNW,298,4.0,13.0,62,0.00,,---,0.00,VWS V14.01,2013-02-17 22:21:00,
2013-02-17 17:26:00,18.4,7.6,30.24,WSW,250,2.0,13.0,62,0.00,,---,0.00,VWS V14.01,2013-02-17 22:26:00,
2013-02-17 17:31:00,18.4,7.6,30.25,West,266,2.0,10.0,62,0.00,,---,0.00,VWS V14.01,2013-02-17 22:31:00,
2013-02-17 17:36:00,18.2,7.4,30.25,WNW,300,3.0,12.0,62,0.00,,---,0.00,VWS V14.01,2013-02-17 22:36:00,
2013-02-17 17:41:00,18.2,7.4,30.25,West,277,4.0,14.0,62,0.00,,---,0.00,VWS V14.01,2013-02-17 22:41:00,
2013-02-17 17:46:00,17.9,7.4,30.25,West,261,1.0,14.0,63,0.00,,---,0.00,VWS V14.01,2013-02-17 22:46:00,
2013-02-17 17:51:00,17.5,7.4,30.25,SW,231,8.0,14.0,64,0.00,,---,0.00,VWS V14.01,2013-02-17 22:51:00,
2013-02-17 17:56:00,17.2,7.1,30.25,SW,225,1.0,14.0,64,0.00,,---,0.00,VWS V14.01,2013-02-17 22:56:00,
2013-02-17 18:01:00,17.0,7.3,30.25,WNW,297,1.0,2.0,65,0.00,,---,0.00,VWS V14.01,2013-02-17 23:01:00,
2013-02-17 18:06:00,16.8,7.1,30.25,WNW,290,3.0,10.0,65,0.00,,---,0.00,VWS V14.01,2013-02-17 23:06:00,
2013-02-17 18:11:00,16.7,7.3,30.25,West,273,2.0,10.0,66,0.00,,---,0.00,VWS V14.01,2013-02-17 23:11:00,
2013-02-17 18:16:00,16.5,7.1,30.25,WNW,293,7.0,10.0,66,0.00,,---,0.00,VWS V14.01,2013-02-17 23:16:00,
2013-02-17 18:21:00,16.3,7.3,30.26,West,278,5.0,10.0,67,0.00,,---,0.00,VWS V14.01,2013-02-17 23:21:00,
2013-02-17 18:26:00,16.2,7.2,30.26,West,279,1.0,10.0,67,0.00,,---,0.00,VWS V14.01,2013-02-17 23:26:00,
2013-02-17 18:31:00,16.2,7.2,30.26,WSW,245,0.0,3.0,67,0.00,,---,0.00,VWS V14.01,2013-02-17 23:31:00,
2013-02-17 18:36:00,15.9,7.2,30.27,WNW,288,5.0,7.0,68,0.00,,---,0.00,VWS V14.01,2013-02-17 23:36:00,
2013-02-17 18:41:00,15.9,7.2,30.27,West,266,0.0,8.0,68,0.00,,---,0.00,VWS V14.01,2013-02-17 23:41:00,
2013-02-17 18:46:00,15.9,7.2,30.27,WSW,250,3.0,8.0,68,0.00,,---,0.00,VWS V14.01,2013-02-17 23:46:00,
2013-02-17 18:51:00,15.8,7.1,30.27,WSW,250,0.0,8.0,68,0.00,,---,0.00,VWS V14.01,2013-02-17 23:51:00,
2013-02-17 18:56:00,15.5,6.8,30.27,North,358,1.0,8.0,68,0.00,,---,0.00,VWS V14.01,2013-02-17 23:56:00,
2013-02-17 19:01:00,15.4,7.1,30.27,WNW,283,1.0,4.0,69,0.00,,---,0.00,VWS V14.01,2013-02-18 00:01:00,
2013-02-17 19:06:00,15.4,7.1,30.27,SW,231,0.0,5.0,69,0.00,,---,0.00,VWS V14.01,2013-02-18 00:06:00,
2013-02-17 19:11:00,15.0,6.7,30.28,WNW,291,0.0,5.0,69,0.00,,---,0.00,VWS V14.01,2013-02-18 00:11:00,
2013-02-17 19:16:00,14.9,6.9,30.28,NW,309,0.0,7.0,70,0.00,,---,0.00,VWS V14.01,2013-02-18 00:16:00,
2013-02-17 19:21:00,14.8,6.8,30.28,SSW,203,0.0,7.0,70,0.00,,---,0.00,VWS V14.01,2013-02-18 00:21:00,
2013-02-17 19:26:00,14.9,6.9,30.28,WSW,242,0.0,7.0,70,0.00,,---,0.00,VWS V14.01,2013-02-18 00:26:00,
2013-02-17 19:31:00,15.1,7.1,30.28,WSW,246,4.0,5.0,70,0.00,,---,0.00,VWS V14.01,2013-02-18 00:31:00,
2013-02-17 19:36:00,15.0,7.0,30.28,WNW,299,5.0,8.0,70,0.00,,---,0.00,VWS V14.01,2013-02-18 00:36:00,
2013-02-17 19:41:00,15.2,7.2,30.28,WNW,285,4.0,8.0,70,0.00,,---,0.00,VWS V14.01,2013-02-18 00:41:00,
2013-02-17 19:46:00,15.2,7.2,30.29,WNW,293,1.0,11.0,70,0.00,,---,0.00,VWS V14.01,2013-02-18 00:46:00,
2013-02-17 19:51:00,15.0,7.0,30.29,WNW,285,0.0,11.0,70,0.00,,---,0.00,VWS V14.01,2013-02-18 00:51:00,
2013-02-17 19:56:00,14.5,6.5,30.29,NW,315,1.0,11.0,70,0.00,,---,0.00,VWS V14.01,2013-02-18 00:56:00,
2013-02-17 20:01:00,14.3,6.6,30.29,WNW,298,4.0,6.0,71,0.00,,---,0.00,VWS V14.01,2013-02-18 01:01:00,
2013-02-17 20:06:00,14.4,6.7,30.30,NW,325,0.0,6.0,71,0.00,,---,0.00,VWS V14.01,2013-02-18 01:06:00,
2013-02-17 20:11:00,14.0,6.3,30.30,NW,307,1.0,6.0,71,0.00,,---,0.00,VWS V14.01,2013-02-18 01:11:00,
2013-02-17 20:16:00,13.9,6.6,30.30,West,273,1.0,6.0,72,0.00,,---,0.00,VWS V14.01,2013-02-18 01:16:00,
2013-02-17 20:21:00,13.9,6.6,30.30,NW,314,0.0,6.0,72,0.00,,---,0.00,VWS V14.01,2013-02-18 01:21:00,
2013-02-17 20:26:00,14.0,6.7,30.30,WNW,288,4.0,6.0,72,0.00,,---,0.00,VWS V14.01,2013-02-18 01:26:00,
2013-02-17 20:31:00,14.1,6.4,30.30,NNW,328,0.0,2.0,71,0.00,,---,0.00,VWS V14.01,2013-02-18 01:31:00,
2013-02-17 20:36:00,14.0,6.3,30.31,WNW,293,0.0,5.0,71,0.00,,---,0.00,VWS V14.01,2013-02-18 01:36:00,
2013-02-17 20:41:00,13.6,6.0,30.30,West,266,0.0,5.0,71,0.00,,---,0.00,VWS V14.01,2013-02-18 01:41:00,
2013-02-17 20:46:00,13.6,6.3,30.30,WNW,283,0.0,5.0,72,0.00,,---,0.00,VWS V14.01,2013-02-18 01:46:00,
2013-02-17 20:51:00,13.4,6.1,30.30,WNW,302,1.0,5.0,72,0.00,,---,0.00,VWS V14.01,2013-02-18 01:51:00,
2013-02-17 20:56:00,13.2,5.9,30.31,NNW,337,0.0,5.0,72,0.00,,---,0.00,VWS V14.01,2013-02-18 01:56:00,
2013-02-17 21:01:00,13.1,6.1,30.31,WNW,300,1.0,1.0,73,0.00,,---,0.00,VWS V14.01,2013-02-18 02:01:00,
2013-02-17 21:07:00,13.2,6.2,30.31,NNW,335,0.0,4.0,73,0.00,,---,0.00,VWS V14.01,2013-02-18 02:07:00,
2013-02-17 21:11:00,13.2,6.2,30.31,West,280,2.0,4.0,73,0.00,,---,0.00,VWS V14.01,2013-02-18 02:11:00,
2013-02-17 21:17:00,13.2,6.2,30.31,WNW,285,0.0,4.0,73,0.00,,---,0.00,VWS V14.01,2013-02-18 02:17:00,
2013-02-17 21:22:00,13.2,6.2,30.32,NW,316,0.0,4.0,73,0.00,,---,0.00,VWS V14.01,2013-02-18 02:22:00,
2013-02-17 21:27:00,13.1,6.1,30.32,WNW,283,0.0,4.0,73,0.00,,---,0.00,VWS V14.01,2013-02-18 02:27:00,
2013-02-17 21:32:00,12.8,5.8,30.32,NNE,13,0.0,1.0,73,0.00,,---,0.00,VWS V14.01,2013-02-18 02:32:00,
2013-02-17 21:37:00,12.8,5.8,30.32,WNW,287,1.0,1.0,73,0.00,,---,0.00,VWS V14.01,2013-02-18 02:37:00,
2013-02-17 21:42:00,12.9,5.9,30.32,West,274,3.0,4.0,73,0.00,,---,0.00,VWS V14.01,2013-02-18 02:42:00,
2013-02-17 21:47:00,13.0,6.0,30.32,West,267,0.0,4.0,73,0.00,,---,0.00,VWS V14.01,2013-02-18 02:47:00,
2013-02-17 21:52:00,12.9,5.9,30.32,SW,225,2.0,4.0,73,0.00,,---,0.00,VWS V14.01,2013-02-18 02:52:00,
2013-02-17 21:57:00,12.8,5.8,30.32,SE,128,0.0,4.0,73,0.00,,---,0.00,VWS V14.01,2013-02-18 02:57:00,
2013-02-17 22:02:00,13.0,6.0,30.32,WNW,288,0.0,1.0,73,0.00,,---,0.00,VWS V14.01,2013-02-18 03:02:00,
2013-02-17 22:07:00,13.0,5.7,30.33,West,259,0.0,3.0,72,0.00,,---,0.00,VWS V14.01,2013-02-18 03:07:00,
2013-02-17 22:12:00,13.1,6.1,30.33,NNW,336,1.0,5.0,73,0.00,,---,0.00,VWS V14.01,2013-02-18 03:12:00,
2013-02-17 22:17:00,13.2,5.9,30.33,WNW,295,0.0,5.0,72,0.00,,---,0.00,VWS V14.01,2013-02-18 03:17:00,
2013-02-17 22:22:00,13.0,5.7,30.32,WNW,290,0.0,5.0,72,0.00,,---,0.00,VWS V14.01,2013-02-18 03:22:00,
2013-02-17 22:27:00,12.9,5.6,30.32,SE,132,0.0,5.0,72,0.00,,---,0.00,VWS V14.01,2013-02-18 03:27:00,
2013-02-17 22:32:00,13.0,5.7,30.32,WNW,283,0.0,4.0,72,0.00,,---,0.00,VWS V14.01,2013-02-18 03:32:00,
2013-02-17 22:37:00,13.1,5.5,30.32,WNW,297,1.0,4.0,71,0.00,,---,0.00,VWS V14.01,2013-02-18 03:37:00,
2013-02-17 22:42:00,13.2,5.6,30.33,West,281,0.0,4.0,71,0.00,,---,0.00,VWS V14.01,2013-02-18 03:42:00,
2013-02-17 22:47:00,13.2,5.6,30.32,SW,224,0.0,4.0,71,0.00,,---,0.00,VWS V14.01,2013-02-18 03:47:00,
2013-02-17 22:52:00,13.3,5.7,30.33,West,263,0.0,5.0,71,0.00,,---,0.00,VWS V14.01,2013-02-18 03:52:00,
2013-02-17 22:57:00,13.4,5.5,30.33,SW,221,0.0,5.0,70,0.00,,---,0.00,VWS V14.01,2013-02-18 03:57:00,
2013-02-17 23:02:00,13.5,5.6,30.33,WNW,295,0.0,4.0,70,0.00,,---,0.00,VWS V14.01,2013-02-18 04:02:00,
2013-02-17 23:07:00,13.4,5.5,30.33,South,172,1.0,5.0,70,0.00,,---,0.00,VWS V14.01,2013-02-18 04:07:00,
2013-02-17 23:12:00,13.4,5.5,30.33,SSW,193,0.0,5.0,70,0.00,,---,0.00,VWS V14.01,2013-02-18 04:12:00,
2013-02-17 23:17:00,13.2,5.3,30.33,WSW,242,0.0,5.0,70,0.00,,---,0.00,VWS V14.01,2013-02-18 04:17:00,
2013-02-17 23:22:00,13.1,5.2,30.33,West,262,1.0,5.0,70,0.00,,---,0.00,VWS V14.01,2013-02-18 04:22:00,
2013-02-17 23:27:00,13.0,5.1,30.33,WSW,243,1.0,5.0,70,0.00,,---,0.00,VWS V14.01,2013-02-18 04:27:00,
2013-02-17 23:32:00,12.9,5.0,30.33,SSW,193,1.0,1.0,70,0.00,,---,0.00,VWS V14.01,2013-02-18 04:32:00,
2013-02-17 23:37:00,12.9,5.3,30.33,WNW,289,4.0,4.0,71,0.00,,---,0.00,VWS V14.01,2013-02-18 04:37:00,
2013-02-17 23:42:00,13.3,5.4,30.33,North,8,1.0,6.0,70,0.00,,---,0.00,VWS V14.01,2013-02-18 04:42:00,
2013-02-17 23:47:00,13.3,5.1,30.33,WNW,283,0.0,6.0,69,0.00,,---,0.00,VWS V14.01,2013-02-18 04:47:00,
2013-02-17 23:52:00,13.4,5.1,30.33,NW,307,1.0,6.0,69,0.00,,---,0.00,VWS V14.01,2013-02-18 04:52:00,
2013-02-17 23:57:00,13.6,5.3,30.33,SSW,207,0.0,6.0,69,0.00,,---,0.00,VWS V14.01,2013-02-18 04:57:00,